User: anonymous   Login
Location: Santa Barbara
(34.4500°N, 119.7700°W)
Time: 22:22:53
(UTC-07:00)
Language:

Cosmos 1626 Rocket - Orbit

View from above orbital plane
View from above orbital plane
View from above satellite
View from above satellite

Ground track
Ground track

The orbit data is extracted from the following two-line orbital elements,

1 15495U 85009B   16208.38063477  .00000096  00000-0  86842-5 0  9999
2 15495  82.5265 132.6374 0019353 329.1290  30.8785 14.83717664701654
Epoch (UTC): 26 July 2016 09:08:06
Eccentricity: 0.0019353
inclination: 82.5265°
perigee height: 604 km
apogee height: 631 km
right ascension of ascending node: 132.6374°
argument of perigee: 329.1290°
revolutions per day: 14.83717664
mean anomaly at epoch: 30.8785°
orbit number at epoch: 70165

The dashed part of the orbit path shows where the satellite is in the earth's shadow,  

DLR